Location: Saint-Restitut
(44.3351°N, 4.7915°E)
Time: 07:19:47
(UTC+00:00)

YAOGAN 1 - Pass Details

Date: 03 February 2023
Orbit: 616 x 618 km, 97.8° (Epoch: 26 March)

Event Time Altitude Azimuth Distance (km) Brightness Sun altitude
Rises 18:04:52 0° 153° (SSE) 2,879 5.8 -13.2°
Reaches altitude 10° 18:07:04 10° 149° (SSE) 1,979 4.9 -13.6°
Maximum altitude 18:11:16 54° 73° (ENE) 759 2.6 -14.3°
Drops below altitude 10° 18:15:30 10° 356° (N) 1,995 5.1 -15.1°
Sets 18:17:43 0° 352° (N) 2,906 6.0 -15.5°
